{"data":{"norad_id":49207,"epoch":"2026-05-25T01:46:17.312736Z","epoch_age_seconds":78858,"freshness":"FRESH","line1":"1 49207U 21083X   26145.07381149  .00000023  00000+0  25263-4 0  9993","line2":"2 49207  87.9163 340.0594 0001713 104.5639 255.5683 13.18685722226943","mean_motion":13.18685722,"eccentricity":0.0001713,"inclination_deg":87.9163,"raan_deg":340.0594,"arg_perigee_deg":104.5639,"mean_anomaly_deg":255.5683,"bstar":2.5263e-5,"rev_number":22694,"period_min":109.1996353624,"perigee_km":1188.447812439,"apogee_km":1191.0405685348,"semimajor_km":7567.8811904869,"source":"CELESTRAK","updated_at":"2026-05-25T13:38:22.514460Z"}}